DECAYED

STARLINK-2197, 47774 (Decayed)

Orbit data source: Space-Track

STARLINK-2197, 47774 was a payload satellite owned by SpaceX/Seattle (US) in LEO that was launched on Thu, 04 Mar 2021 UTC via an FALCON 9 launch vehicle from the Air Force Eastern Test Range (AFETR). Payload-class satellites include a variety of spacecraft equipped with specific instruments for various scientific and technological missions. These include communications satellites like Starlink; space stations such as the ISS; scientific satellites like the Hubble; Earth observation satellites from companies like Planet Labs, Umbra, and HawkEye 360; GPS; miniature CubeSats for education and research; and military/defense satellites.

Not visible in the next 10 days
Identifier
47774, 2021-017BE
Orbit
Decayed
Country
Flag of USUS
Related business
Manufacturer
SpaceX/Seattle
Mission
Decayed Commercial Communications
Bus & Motor
STARLINK, Unknown motor
Mass
260 kg wet, ~248 kg dry
Launch date (UTC)
2021-03-04 (5 years ago)
Launch vehicle
FALCON 9
Launch site
Air Force Eastern Test Range (AFETR)
Object type
Payload
Rocket body
Debris
Shape & HBR
Box + 1 Pan, 10.1 m
Radar Cross Section
13.562 m², Large (>1 m²)

Expand to show TLE details & history
Last TLE update: 2 years ago

TLE from 2 years ago
0 STARLINK-2197
1 47774U 21017BE  25043.40472757  .30886185  12654-4  33910-3 0  9990
2 47774  53.0301 136.1402 0005877 276.5721 131.7427 16.50058810218513
Epoch: 2025-02-12T09:42Z
TLE epoch observation values (Epoch: 2025-02-12T09:42:48.462Z)
Latitude
36.78988°
Longitude
-118.22531°
Altitude
144.633 km
Speed
7.823 km/s
True Right ascension
11h 20m 41s
True Declination
36° 36' 34"
Sunlit
Object was in full shadow at epoch
Visualization orbit readout
Latitude
Unknown
Longitude
Unknown
Altitude
Unknown
Speed
Unknown
Apparent Right ascension
Unknown
Apparent Declination
Unknown
Sunlit
N/A
Visualization observer readout
Local Sidereal Time
04:19:38
Azimuth
Unknown
Elevation
Unknown
Doppler factor
Unknown
Orbital elements
Apogee altitude
143.302 km
Perigee altitude
135.642 km
Semi-major axis
6,517.609 km
Eccentricity
0.00059
Inclination
53.0301°
RAAN
136.1402°
Arg. of periapsis
276.5721°
True anomaly
131.79292°
Mean anomaly
131.7427°
Eccentric anomaly
131.76781°
Mean motion
4.12487 °/min
Orbital period
87.28 mins
BSTAR
0.0003391
Loading maneuver chart data...
Computing Atmospheric mass density...

Documentation

Showing up to 5 results
|